This is the latest recevied weather packets stored in our database for station/object CA3EVY-3. If no packets are shown the sender has not sent any weather packets the latest 10 day(s).
| Time | Temp. | Humidity | Pressure | Rain* | Wind** | Luminosity | Snow |
|---|---|---|---|---|---|---|---|
| 1777686304 | 13.33° C | 62% | 921.9 hPa | - | - | - | - |
| 1777685403 | 13.33° C | 62% | 921.9 hPa | - | - | - | - |
| 1777684505 | 13.33° C | 62% | 921.9 hPa | - | - | - | - |
| 1777683604 | 13.89° C | 62% | 921.8 hPa | - | - | - | - |
| 1777682704 | 13.89° C | 62% | 921.9 hPa | - | - | - | - |
| 1777681803 | 14.44° C | 62% | 922 hPa | - | - | - | - |
| 1777680904 | 14.44° C | 62% | 922 hPa | - | - | - | - |
| 1777680004 | 14.44° C | 62% | 922.1 hPa | - | - | - | - |
| 1777679104 | 14.44° C | 62% | 921.8 hPa | - | - | - | - |
| 1777678204 | 15° C | 62% | 921.9 hPa | - | - | - | - |
| 1777677305 | 15° C | 62% | 921.9 hPa | - | - | - | - |
| 1777676403 | 15° C | 61% | 921.9 hPa | - | - | - | - |
| 1777675504 | 15.56° C | 61% | 921.8 hPa | - | - | - | - |
| 1777674604 | 16.11° C | 60% | 921.8 hPa | - | - | - | - |
| 1777673703 | 16.67° C | 60% | 921.7 hPa | - | - | - | - |
| 1777672804 | 17.22° C | 59% | 921.8 hPa | - | - | - | - |
| 1777671904 | 17.78° C | 59% | 921.8 hPa | - | - | - | - |
| 1777671003 | 18.33° C | 58% | 921.8 hPa | - | - | - | - |
| 1777670104 | 18.33° C | 58% | 922 hPa | - | - | - | - |
| 1777669204 | 18.33° C | 59% | 922.2 hPa | - | - | - | - |
| 1777668304 | 18.33° C | 59% | 922.3 hPa | - | - | - | - |
| 1777667404 | 18.33° C | 61% | 922.1 hPa | - | - | - | - |
| 1777666504 | 18.33° C | 61% | 921.9 hPa | - | - | - | - |
| 1777665604 | 17.22° C | 63% | 921.7 hPa | - | - | - | - |
| 1777664704 | 17.22° C | 63% | 921.7 hPa | - | - | - | - |
* Rain since midnight (hover to see other rain measurements)
** Current wind speed in m/s (hover to see current wind gust speed)